TimeEST,TemperatureF,Dew PointF,Humidity,Sea Level PressureIn,VisibilityMPH,Wind Direction,Wind SpeedMPH,Gust SpeedMPH,PrecipitationIn,Events,Conditions,WindDirDegrees,DateUTC
12:53 AM,36.0,33.1,89,30.39,6.0,Calm,Calm,-,N/A,,Clear,0,2012-12-02 05:53:00
1:53 AM,35.1,30.9,85,30.38,8.0,West,4.6,-,N/A,,Clear,270,2012-12-02 06:53:00
2:53 AM,33.1,30.9,92,30.37,7.0,Calm,Calm,-,N/A,,Clear,0,2012-12-02 07:53:00
3:53 AM,33.1,30.0,89,30.35,6.0,Calm,Calm,-,N/A,,Clear,0,2012-12-02 08:53:00
4:53 AM,30.9,28.9,92,30.34,6.0,South,3.5,-,N/A,,Clear,170,2012-12-02 09:53:00
5:53 AM,32.0,28.0,85,30.35,4.0,Calm,Calm,-,0.00,,Clear,0,2012-12-02 10:53:00
6:53 AM,33.1,30.9,92,30.34,6.0,Calm,Calm,-,N/A,,Clear,0,2012-12-02 11:53:00
7:53 AM,34.0,30.9,89,30.35,4.0,Calm,Calm,-,N/A,,Clear,0,2012-12-02 12:53:00
8:53 AM,36.0,32.0,86,30.35,4.0,West,3.5,-,N/A,,Clear,260,2012-12-02 13:53:00
9:53 AM,41.0,36.0,82,30.34,5.0,Calm,Calm,-,N/A,,Haze,0,2012-12-02 14:53:00
10:53 AM,46.0,37.9,73,30.31,5.0,SSW,8.1,-,N/A,,Haze,200,2012-12-02 15:53:00
11:53 AM,51.1,39.0,63,30.27,7.0,SSW,4.6,-,N/A,,Clear,200,2012-12-02 16:53:00
12:53 PM,55.0,39.9,57,30.22,9.0,SSW,9.2,-,N/A,,Clear,210,2012-12-02 17:53:00
1:53 PM,61.0,42.1,50,30.17,10.0,South,12.7,-,N/A,,Clear,170,2012-12-02 18:53:00
2:53 PM,62.1,44.1,52,30.16,10.0,SSW,12.7,-,N/A,,Clear,200,2012-12-02 19:53:00
3:53 PM,62.1,45.0,53,30.16,10.0,South,8.1,-,N/A,,Clear,190,2012-12-02 20:53:00
4:53 PM,62.1,44.1,52,30.16,10.0,SSW,6.9,-,N/A,,Partly Cloudy,210,2012-12-02 21:53:00
5:53 PM,57.0,48.0,72,30.17,10.0,SSW,6.9,-,0.00,Rain,Light Rain,200,2012-12-02 22:53:00
6:53 PM,57.0,48.9,74,30.17,10.0,South,8.1,-,0.00,,Overcast,190,2012-12-02 23:53:00
7:53 PM,57.0,48.9,74,30.17,10.0,South,8.1,-,N/A,,Overcast,180,2012-12-03 00:53:00
8:53 PM,55.9,48.0,75,30.17,10.0,SSW,6.9,-,N/A,,Scattered Clouds,200,2012-12-03 01:53:00
9:53 PM,55.0,48.0,77,30.17,10.0,SSW,5.8,-,N/A,,Clear,210,2012-12-03 02:53:00
10:53 PM,57.0,48.0,72,30.17,10.0,SSW,6.9,-,N/A,,Mostly Cloudy,210,2012-12-03 03:53:00
11:53 PM,59.0,48.0,67,30.17,10.0,SW,6.9,-,N/A,,Partly Cloudy,220,2012-12-03 04:53:00